Weather in Pazhga

Russia / Komi Republic     61°23′27″N   50°34′35″E
temp.,
°C
wind,
m/s
gust,
m/s
humid.,
%
clouds,
%
prec.,
mm/h
press.,
hPa
HPBL,
m
8 august, mon
mon800:00+20s387296 0.0 1016160
03:00+17ssw278861 0.0 1017151
06:00+19wnw358620 0.1 1018346
09:00+22wnw356251 0.1 10191079
12:00+24wnw34475 0.0 10201394
15:00+24wnw44415 0.0 10201650
18:00+21wnw245119 0.0 1021205
21:00+16nnw246315 0.0 102271
9 august, tue
tue900:00+14n22665 0.0 102235
03:00+12n237191 0.0 102355
06:00+15nne246699 0.0 1023131
09:00+19nne2348100 0.0 1023599
12:00+17nnw2367100 0.1 1024105
15:00+17n1263100 0.1 102343
18:00+16ne2460100 0.0 102296
21:00+15nne2663100 0.0 1022128
10 august, wed
wed1000:00+15ne2960100 0.0 1022273
03:00+15nne2659100 0.0 1021162
06:00+12ne2796100 1.6 1021203
09:00+12nne31098100 10.9 1022498
12:00+12ne41196100 6.5 1021644
15:00+12nne41097100 8.8 1020624
18:00+12nne41097100 3.6 1020494
21:00+11n3798100 3.8 1019397
11 august, thu
thu1100:00+11n2898100 0.3 1019325
03:00+11nnw2696100 0.3 1019212
06:00+12nw269227 0.0 1019202
09:00+17nw366376 0.0 1018472
12:00+22nnw473214 0.0 10172648
15:00+18wnw265553 0.0 1017231
18:00+18wsw256398 0.0 1016137
21:00+14wsw3971100 0.0 1016183
12 august, fri
fri1200:00+16wnw41165100 0.0 1015485
03:00+13sw2791100 0.2 1014173
06:00+13sw31082100 0.0 1013322
09:00+15w41080100 0.3 1011742
12:00+14w41096100 2.9 1011670
15:00+16w498914 3.0 1011863
18:00+17wnw410745 0.4 1011829
21:00+15wnw4107449 0.6 1012317